Regional Weather Roundup
Issued by NWS Grand Forks, ND

Home | Current Version | Previous Version | Graphics & Text | Print | Product List | Glossary On
Versions: 1 2 3 4 5 6 7 8 9 10 11 12 13 14 15 16 17 18 19 20 21 22 23 24 25 26 27 28 29 30 31 32 33 34 35 36 37 38 39 40 41 42 43 44 45 46 47 48 49 50
000
ASUS43 KFGF 180610
RWRFGF
PRAIRIE TO PINES  WEATHER ROUNDUP
NATIONAL WEATHER SERVICE EASTERN NORTH DAKOTA/GRAND FORKS ND
100 AM CDT THU SEP 18 2014

 **SATELLITE DATA USED TO AUGMENT SKY COVER AT AUTOMATED STATIONS**
 *****  WEATHER ACROSS EASTERN NORTH DAKOTA  *****

CITY           SKY/WX    TMP DP  RH WIND       PRES   REMARKS
GRAND FORKS    CLEAR     46  42  86 NE5       30.04S
6HR MIN TEMP:  46; 6HR MAX TEMP:  61;

GRAND FRKS AFB CLEAR     39  39  99 N3        30.05F
GRAND FRKS NWS   N/A     45 N/A N/A NE5         N/A
DEVILS LAKE    CLEAR     46  39  76 SE8       30.01F
6HR MIN TEMP:  46; 6HR MAX TEMP:  57;

FARGO          CLEAR     48  45  89 NE5       30.01S
WAHPETON ARPT  CLEAR     54  48  82 E8        30.00S
$$

 ***** WEATHER ACROSS CENTRAL AND WESTERN NORTH DAKOTA  *****

CITY           SKY/WX    TMP DP  RH WIND       PRES   REMARKS
BISMARCK       CLEAR     50  47  89 NE9       30.00R
6HR MIN TEMP:  50; 6HR MAX TEMP:  69;

MINOT          CLEAR     49  46  90 E10       29.97F
6HR MIN TEMP:  49; 6HR MAX TEMP:  64;

JAMESTOWN      CLEAR     48  45  89 E6        30.01R
6HR MIN TEMP:  48; 6HR MAX TEMP:  64;

MINOT AFB      CLEAR     47  46  99 SE10      29.97S
GARRISON         N/A     53  51  93 SE7       29.97S
WILLISTON      CLEAR     61  47  59 SE12      29.89F
6HR MIN TEMP:  54; 6HR MAX TEMP:  73;

DICKINSON      PTCLDY    55  47  74 SE15      29.92F
6HR MIN TEMP:  54; 6HR MAX TEMP:  68;

HETTINGER      CLEAR     53  47  79 SE9       29.96F
6HR MIN TEMP:  53; 6HR MAX TEMP:  66;

$$

 *****  OTHER AIRPORT OBSERVATIONS IN OUR AREA  *****

CITY           SKY/WX    TMP DP  RH WIND       PRES   REMARKS
WALHALLA       FAIR      37  37 100 CALM      30.08S
GRAFTON AIRPOR FAIR      39  37  93 N3        30.06S
VALLEY CITY AR FAIR      48  48 100 NE7       30.01F
CANDO          FAIR      41  39  93 E7        30.03F
CAVALIER APRT  FAIR      39  37  93 CALM      30.07F
GWINNER        CLEAR     50  50 100 N3        30.01S
ROLLA          FAIR      39  39 100 SE6       30.04F
 ***** THE ABOVE OBSERVATIONS ARE NON NWS ARE NOT QUALITY
       CONTROLLED AND MAY MIS-REPORT RAIN FOR SNOW...
$$

  *****  WEATHER ACROSS NORTHERN MINNESOTA  *****

CITY           SKY/WX    TMP DP  RH WIND       PRES   REMARKS
FLAG ISLAND    CLEAR     45  37  76 SE6       30.10R
WARROAD        CLEAR     43  39  87 E9        30.11R
ROSEAU         CLEAR     39  36  87 E6        30.10R
HALLOCK        CLEAR     43  39  87 E6        30.06F
THF RVR FALLS  CLEAR     43  39  87 E6        30.06S
6HR MIN TEMP:  43; 6HR MAX TEMP:  57;

BAUDETTE       CLEAR     36  34  92 E5        30.10F
6HR MIN TEMP:  36; 6HR MAX TEMP:  47;

WASKISH        CLEAR     37  36  93 CALM      30.08F
CROOKSTON      CLEAR     46  45  93 E8        30.04F
$$
  *****  WEATHER ACROSS CENTRAL AND WEST MINNESOTA  *****

CITY           SKY/WX    TMP DP  RH WIND       PRES   REMARKS
FOSSTON        CLEAR     43  39  87 CALM      30.05S
BEMIDJI        CLOUDY    48  46  92 E7        30.06S
PARK RAPIDS    CLOUDY    51  49  92 E7        30.05S
6HR MIN TEMP:  51; 6HR MAX TEMP:  66;

ELBOW LAKE     FAIR      56  52  86 E8        30.01S
6HR MIN TEMP:  56; 6HR MAX TEMP:  68;

WADENA         CLOUDY    50  48  93 E9        30.04S
DETROIT LAKES  CLEAR     52  50  93 E3        30.04S
MOORHEAD       CLEAR     46  46 100 CALM      30.02S
FERGUS FALLS   CLEAR     57  48  72 E6        30.01S
MORRIS MN      CLEAR     54  52  94 E7        30.00R
STAPLES        CLOUDY    48  46  93 E5        30.06R
$$
  *****  WEATHER ELSEWHERE ACROSS MINNESOTA  *****

CITY           SKY/WX    TMP DP  RH WIND       PRES   REMARKS
DULUTH         CLOUDY    45  39  79 E12       30.12S
6HR MIN TEMP:  45; 6HR MAX TEMP:  45;

INTRNTL FALLS  CLEAR     36  34  92 E5        30.11S
6HR MIN TEMP:  31; 6HR MAX TEMP:  48;

ELY            CLEAR     36  34  93 CALM      30.13S
CLOQUET        CLOUDY    45  39  81 E6        30.12R
WHEATON        CLEAR     48  45  87 CALM      30.02R
BRAINERD       CLOUDY    45  43  93 VRB6      30.09R
6HR MIN TEMP:  45; 6HR MAX TEMP:  65;

HIBBING        CLOUDY    44  39  82 SE10      30.12S
6HR MIN TEMP:  44; 6HR MAX TEMP:  52;

ALEXANDRIA     CLEAR     55  50  83 E9        30.04R
6HR MIN TEMP:  53; 6HR MAX TEMP:  69;

SAINT CLOUD    CLOUDY    51  48  89 NE10G16   30.07R
6HR MIN TEMP:  51; 6HR MAX TEMP:  70;

MINNEAPOLIS    CLEAR     56  52  86 NE8       30.04R
6HR MIN TEMP:  56; 6HR MAX TEMP:  70;

$$

  *****  WEATHER ACROSS SOUTH DAKOTA  *****

CITY           SKY/WX    TMP DP  RH WIND       PRES   REMARKS
SIOUX FALLS    PTCLDY    59  54  83 E5        29.98F
6HR MIN TEMP:  58; 6HR MAX TEMP:  73;

BROOKINGS      NOT AVBL
WATERTOWN      CLEAR     56  49  77 E5        29.99F
6HR MIN TEMP:  54; 6HR MAX TEMP:  68;

HURON          PTCLDY    59  53  80 SE6       29.96R
6HR MIN TEMP:  59; 6HR MAX TEMP:  73; 6HR PCP: TRACE;

SISSETON         N/A     45  44  97 CALM      29.99S
ABERDEEN       CLEAR     48  47  96 CALM      29.99S
6HR MIN TEMP:  48; 6HR MAX TEMP:  65;

MITCHELL       PTCLDY    59  56  89 SE7       29.95F
PIERRE         CLEAR     54  46  74 E7        29.94F
6HR MIN TEMP:  54; 6HR MAX TEMP:  73; 6HR PCP: TRACE;

MOBRIDGE       CLEAR     53  46  77 E9        29.96S
RAPID CITY     PTCLDY    59  52  77 S6        29.98F
6HR MIN TEMP:  58; 6HR MAX TEMP:  78;

$$

  *****  SOME WEATHER IN NEARBY STATES *****

CITY           SKY/WX    TMP DP  RH WIND       PRES   REMARKS
GLASGOW MT     CLEAR     59  46  62 SE17      29.78S
6HR MIN TEMP:  59; 6HR MAX TEMP:  78;

GREAT FALLS MT CLOUDY    69  43  38 S12       29.77S
6HR MIN TEMP:  67; 6HR MAX TEMP:  77;

CHEYENNE WY    CLEAR     56  41  57 W7        30.12S
6HR MIN TEMP:  54; 6HR MAX TEMP:  76;

SCOTTSBLUFF NE CLEAR     58  50  75 E3        29.98R
6HR MIN TEMP:  57; 6HR MAX TEMP:  83;

OMAHA NE       PTCLDY    65  58  78 SE8       29.99R
6HR MIN TEMP:  64; 6HR MAX TEMP:  77;

DES MOINES IA  CLEAR     62  57  83 CALM      30.01R
6HR MIN TEMP:  62; 6HR MAX TEMP:  72;

DAVENPORT IA   CLEAR     49  46  90 CALM      30.04S
6HR MIN TEMP:  49; 6HR MAX TEMP:  64;

CHICAGO IL     CLEAR     56  48  74 CALM      30.04R
6HR MIN TEMP:  56; 6HR MAX TEMP:  66;

EAU CLAIRE WI  CLEAR     51  48  89 NE6       30.06R
6HR MIN TEMP:  51; 6HR MAX TEMP:  66;

LA CROSSE WI   CLEAR     53  50  89 SE6       30.04R
6HR MIN TEMP:  53; 6HR MAX TEMP:  66;

$$

  *****  SOME NATIONAL WEATHER *****

CITY           SKY/WX    TMP DP  RH WIND       PRES   REMARKS
LA GUARDIA NY  CLEAR     64  53  67 W5        29.96S
6HR MIN TEMP:  63; 6HR MAX TEMP:  70;

RALEIGH NC     PTCLDY    65  59  81 SE3       29.96F
6HR MIN TEMP:  65; 6HR MAX TEMP:  70;

ATLANTA GA     MOCLDY    68  57  68 NW5       29.96S
6HR MIN TEMP:  67; 6HR MAX TEMP:  77;

NEW ORLEANS LA CLEAR     76  71  85 W3        29.92S
6HR MIN TEMP:  76; 6HR MAX TEMP:  84;

OKLAHOMA CITY  CLOUDY    74  64  71 SE6       29.91S
6HR MIN TEMP:  73; 6HR MAX TEMP:  85;

ALBUQUERQUE NM CLOUDY    64  58  80 E3        30.11F
6HR MIN TEMP:  64; 6HR MAX TEMP:  69;

SALT LAKE CITY PTCLDY    78  40  25 S14       29.89R
6HR MIN TEMP:  76; 6HR MAX TEMP:  92;

LOS ANGELES CA CLEAR     70  59  68 SW9       29.78R
6HR MIN TEMP:  70; 6HR MAX TEMP:  82;

BOISE ID       CLOUDY    76  37  24 CALM      29.69F


USA.gov is the U.S. government's official web portal to all federal, state and local government web resources and services.